Regional Weather Roundup
Issued by NWS

Home | Current Version | Previous Version | Graphics & Text | Print | Product List | Glossary On
Versions: 1 2 3 4 5 6 7 8 9 10 11 12 13 14 15 16 17 18 19 20 21 22 23 24 25 26 27 28 29 30 31 32 33 34 35 36 37 38 39 40 41 42 43 44 45 46 47 48 49 50
000
ASUS45 KCYS 051110
RWRWY

WYOMING REGIONAL WEATHER ROUNDUP
NATIONAL WEATHER SERVICE CHEYENNE WY
400 AM MST THU MAR 05 2015

NOTE:  "FAIR" INDICATES FEW OR NO CLOUDS BELOW 12,000 FEET
WITH NO SIGNIFICANT WEATHER AND/OR OBSTRUCTIONS TO VISIBILITY.

WYZ001-051200-
YELLOWSTONE NATIONAL PARK

CITY           SKY/WX    TMP DP  RH WIND       PRES   REMARKS
LK YELLOWSTONE   N/A     -9 -13  83 NW3       30.22R
W YELLOWSTONE  NOT AVBL

$$
WYZ002>013-054>058-071-098>099-051200-
NORTHERN WYOMING

CITY           SKY/WX    TMP DP  RH WIND       PRES   REMARKS
JACKSON        FAIR      -2  -6  84 N7        30.26S WCI -16
CODY           FAIR      19   3  49 W7G20     30.06S WCI  10
GREYBULL       FAIR       8   2  76 SE7       30.18S WCI  -3
WORLAND        FAIR       8   2  76 S6        30.17R WCI  -2
SHERIDAN       FAIR       3  -5  69 CALM      30.07S
BUFFALO        FAIR      21  -5  31 CALM      30.04S
GILLETTE       FAIR      21   2  43 SW16      30.05F WCI   7
HULETT         FAIR      10   1  67 W7        30.07S WCI   0
NEWCASTLE      FAIR       1  -4  78 MISG      30.14F

$$
WYZ014>020-022>026-101>103-051200-
CENTRAL WYOMING

CITY           SKY/WX    TMP DP  RH WIND       PRES   REMARKS
BIG PINEY      FAIR       8   0  69 NE3       30.21F
PINEDALE       FAIR       7  -2  66 NW10      30.21R WCI  -8
DUBOIS         FAIR      16   3  57 N12       30.14R WCI   3
LANDER         FAIR       0  -4  83 VRB3      30.11S
RIVERTON       FAIR      -4  -9  79 MISG      30.12F
CASPER         FAIR      13   4  67 SW16      30.12S WCI  -3
DOUGLAS        FAIR     -10 -16  74 CALM      30.14S

$$
WYZ021-027>030-104>119-051200-
SOUTHERN WYOMING

CITY           SKY/WX    TMP DP  RH WIND       PRES   REMARKS
EVANSTON       FAIR      10   4  76 SW12      30.29R WCI  -5
FORT BRIDGER   FAIR      20   9  62 W15       30.28S WCI   6
ROCK SPRINGS   FAIR      16   6  65 W15G26    30.20S WCI   1
DIXON          PTSUNNY    5   0  80 CALM      30.30S
RAWLINS        FAIR      15   6  67 SW15G30   30.16S WCI   0
SARATOGA       FAIR       9   1  72 SE8       30.21R WCI  -4
LARAMIE        FAIR      12   1  61 SW18      30.10S WCI  -6
CHEYENNE       FAIR      20   3  48 SW7       30.09F WCI  11
TORRINGTON     FAIR       2  -3  80 CALM      30.16F
PINE BLUFFS    FAIR       7   3  85 SW5       30.16S WCI  -2

$$



USA.gov is the U.S. government's official web portal to all federal, state and local government web resources and services.